,,,PA_Meas_PMT16A,,PR_Meas_QMR101_102,,RH_Meas_QMH101,,SR_Meas_QMS101,,TA_Meas_QMH101,,GenWind,,GenWind,
date,time,status,PA,status,PR,status,RH,status,SR,status,TA,status,DirAvg,status,SpdAvg,
2010-10-31, 00:00:04,VALID,1008.94,VALID,0,VALID,103.68,VALID,0,VALID,23.8712,VALID,259,VALID,0.406641,
2010-10-31, 00:01:04,VALID,1008.98,VALID,0,VALID,103.672,VALID,0,VALID,23.8499,VALID,243,VALID,0.362891,
2010-10-31, 00:02:04,VALID,1009,VALID,0,VALID,103.642,VALID,0,VALID,23.8889,VALID,243,VALID,0.368359,
2010-10-31, 00:03:04,VALID,1009.06,VALID,0,VALID,103.657,VALID,0,VALID,23.9297,VALID,307,VALID,0.630469,
2010-10-31, 00:04:04,VALID,1009.13,VALID,0,VALID,103.642,VALID,0,VALID,23.9491,VALID,307,VALID,1.06914,
2010-10-31, 00:05:04,VALID,1009.2,VALID,1,VALID,103.649,VALID,0,VALID,23.9473,VALID,276,VALID,0.532422,
2010-10-31, 00:06:04,VALID,1009.21,VALID,0.5,VALID,103.649,VALID,0,VALID,23.9668,VALID,222,VALID,1.11172,
2010-10-31, 00:07:04,VALID,1009.14,VALID,1,VALID,103.634,VALID,0,VALID,23.9881,VALID,237,VALID,0.199609,
2010-10-31, 00:08:04,VALID,1009.16,VALID,0,VALID,103.619,VALID,0,VALID,23.9863,VALID,313,VALID,1.11406,
2010-10-31, 00:09:04,VALID,1009.18,VALID,0,VALID,103.626,VALID,0,VALID,23.965,VALID,314,VALID,0.7625,
2010-10-31, 00:10:04,VALID,1009.14,VALID,0,VALID,103.649,VALID,0,VALID,23.9473,VALID,329,VALID,0.534375,
2010-10-31, 00:11:04,VALID,1009.09,VALID,0.5,VALID,103.634,VALID,0,VALID,23.926,VALID,328,VALID,0.284375,
2010-10-31, 00:12:04,VALID,1009.09,VALID,0,VALID,103.634,VALID,0,VALID,23.9278,VALID,329,VALID,0,
2010-10-31, 00:13:04,VALID,1009.11,VALID,0,VALID,103.611,VALID,0.105969,VALID,23.9065,VALID,329,VALID,0.00507812,
2010-10-31, 00:14:04,VALID,1009.08,VALID,0,VALID,103.619,VALID,0,VALID,23.9065,VALID,327,VALID,0.416797,
2010-10-31, 00:15:04,VALID,1009.08,VALID,0.5,VALID,103.596,VALID,0,VALID,23.9065,VALID,327,VALID,0.705859,
2010-10-31, 00:16:04,VALID,1009.1,VALID,0,VALID,103.596,VALID,0,VALID,23.9065,VALID,315,VALID,0.586328,
2010-10-31, 00:17:04,VALID,1009.07,VALID,0,VALID,103.581,VALID,0,VALID,23.9278,VALID,316,VALID,0.228125,
2010-10-31, 00:18:04,VALID,1009.06,VALID,0,VALID,103.588,VALID,0,VALID,23.9084,VALID,316,VALID,0.133203,
2010-10-31, 00:19:04,VALID,1009.04,VALID,0,VALID,103.535,VALID,0,VALID,23.9084,VALID,316,VALID,0,
2010-10-31, 00:20:04,VALID,1009.02,VALID,0,VALID,103.542,VALID,0,VALID,23.9065,VALID,315,VALID,0.205078,
2010-10-31, 00:21:04,VALID,1008.98,VALID,0,VALID,103.512,VALID,0,VALID,23.9065,VALID,314,VALID,0.3875,
2010-10-31, 00:22:04,VALID,1008.98,VALID,0,VALID,103.527,VALID,0,VALID,23.9084,VALID,314,VALID,0,
2010-10-31, 00:23:04,VALID,1008.96,VALID,0,VALID,103.504,VALID,0,VALID,23.9084,VALID,314,VALID,0,
2010-10-31, 00:24:04,VALID,1008.95,VALID,0,VALID,103.489,VALID,0,VALID,23.9278,VALID,314,VALID,0.00078125,
2010-10-31, 00:25:04,VALID,1008.95,VALID,0.5,VALID,103.489,VALID,0,VALID,23.9278,VALID,314,VALID,0.480078,
2010-10-31, 00:26:04,VALID,1008.91,VALID,0,VALID,103.466,VALID,0,VALID,23.9084,VALID,314,VALID,0.358203,
2010-10-31, 00:27:04,VALID,1008.93,VALID,0,VALID,103.489,VALID,0,VALID,23.9278,VALID,214,VALID,0.345313,
2010-10-31, 00:28:04,VALID,1008.88,VALID,0,VALID,103.481,VALID,0,VALID,23.9084,VALID,214,VALID,0.508594,
2010-10-31, 00:29:04,VALID,1008.87,VALID,0,VALID,103.466,VALID,0,VALID,23.9084,VALID,214,VALID,0.574219,
2010-10-31, 00:30:04,VALID,1008.85,VALID,0,VALID,103.436,VALID,0,VALID,23.9084,VALID,214,VALID,0.482812,
2010-10-31, 00:31:04,VALID,1008.86,VALID,0,VALID,103.436,VALID,0,VALID,23.8871,VALID,214,VALID,0.170703,
2010-10-31, 00:32:04,VALID,1008.84,VALID,0.5,VALID,103.436,VALID,0.105969,VALID,23.9084,VALID,214,VALID,0,
2010-10-31, 00:33:04,VALID,1008.78,VALID,0,VALID,103.413,VALID,0.105969,VALID,23.926,VALID,214,VALID,0.08125,
2010-10-31, 00:34:04,VALID,1008.77,VALID,0,VALID,103.413,VALID,0,VALID,23.9278,VALID,214,VALID,0.447266,
2010-10-31, 00:35:04,VALID,1008.78,VALID,0,VALID,103.398,VALID,0.105969,VALID,23.9473,VALID,214,VALID,0.401563,
2010-10-31, 00:36:04,VALID,1008.78,VALID,0,VALID,103.382,VALID,0,VALID,23.9473,VALID,214,VALID,0.438672,
2010-10-31, 00:37:04,VALID,1008.78,VALID,0,VALID,103.375,VALID,0,VALID,23.926,VALID,214,VALID,0.526563,
2010-10-31, 00:38:04,VALID,1008.76,VALID,0.5,VALID,103.382,VALID,0.105969,VALID,23.9278,VALID,214,VALID,0.678516,
2010-10-31, 00:39:04,VALID,1008.77,VALID,0,VALID,103.337,VALID,0,VALID,23.926,VALID,214,VALID,0.441016,
2010-10-31, 00:40:04,VALID,1008.73,VALID,0,VALID,103.352,VALID,0.105969,VALID,23.9668,VALID,214,VALID,0.348047,
2010-10-31, 00:41:04,VALID,1008.7,VALID,0.5,VALID,103.329,VALID,0.105969,VALID,23.9455,VALID,214,VALID,0,
2010-10-31, 00:42:04,VALID,1008.68,VALID,0,VALID,103.344,VALID,0.105969,VALID,23.9455,VALID,214,VALID,0.195703,
2010-10-31, 00:43:04,VALID,1008.69,VALID,0.5,VALID,103.321,VALID,0,VALID,23.9668,VALID,214,VALID,0,
2010-10-31, 00:44:04,VALID,1008.67,VALID,0,VALID,103.329,VALID,0.105969,VALID,23.9455,VALID,214,VALID,0,
2010-10-31, 00:45:04,VALID,1008.64,VALID,0,VALID,103.314,VALID,0.105969,VALID,23.9455,VALID,214,VALID,0,
2010-10-31, 00:46:04,VALID,1008.63,VALID,0,VALID,103.276,VALID,0,VALID,23.9863,VALID,251,VALID,0.526953,
2010-10-31, 00:47:04,VALID,1008.61,VALID,0,VALID,103.23,VALID,0.105969,VALID,24.0058,VALID,280,VALID,0.618359,
2010-10-31, 00:48:04,VALID,1008.62,VALID,0,VALID,103.268,VALID,0.105969,VALID,23.9845,VALID,280,VALID,0.350781,
2010-10-31, 00:49:04,VALID,1008.6,VALID,0,VALID,103.268,VALID,0.105969,VALID,23.9845,VALID,280,VALID,0,
2010-10-31, 00:50:04,VALID,1008.6,VALID,0.5,VALID,103.253,VALID,0.105969,VALID,23.9845,VALID,280,VALID,0,
2010-10-31, 00:51:04,VALID,1008.59,VALID,0,VALID,103.222,VALID,0.105969,VALID,24.004,VALID,306,VALID,0.621094,
2010-10-31, 00:52:04,VALID,1008.52,VALID,0,VALID,103.222,VALID,0,VALID,24.0253,VALID,83,VALID,1.4418,
2010-10-31, 00:53:04,VALID,1008.55,VALID,0,VALID,103.184,VALID,0.105969,VALID,24.0429,VALID,258,VALID,0.533203,
2010-10-31, 00:54:04,VALID,1008.56,VALID,0.5,VALID,103.154,VALID,0,VALID,24.0643,VALID,258,VALID,0.339063,
2010-10-31, 00:55:04,VALID,1008.65,VALID,0,VALID,103.215,VALID,0.105969,VALID,24.0429,VALID,310,VALID,0.967578,
2010-10-31, 00:56:04,VALID,1008.66,VALID,0.5,VALID,103.253,VALID,0.105969,VALID,24.004,VALID,295,VALID,1.17188,
2010-10-31, 00:57:04,VALID,1008.62,VALID,0,VALID,103.314,VALID,0.105969,VALID,23.9845,VALID,287,VALID,1.23008,
2010-10-31, 00:58:04,VALID,1008.57,VALID,0.5,VALID,103.291,VALID,0.105969,VALID,23.9863,VALID,324,VALID,0.305859,
2010-10-31, 00:59:04,VALID,1008.59,VALID,0,VALID,103.306,VALID,0,VALID,23.9473,VALID,300,VALID,2.07148,
2010-10-31, 01:00:04,VALID,1008.47,VALID,0,VALID,103.344,VALID,0,VALID,23.8871,VALID,19,VALID,0.530859,
2010-10-31, 01:01:04,VALID,1008.51,VALID,0.5,VALID,103.298,VALID,0.105969,VALID,23.9278,VALID,35,VALID,0.421094,
2010-10-31, 01:02:04,VALID,1008.54,VALID,0,VALID,103.291,VALID,0.105969,VALID,23.8676,VALID,30,VALID,0.808594,
2010-10-31, 01:03:04,VALID,1008.47,VALID,0,VALID,103.306,VALID,0.105969,VALID,23.8694,VALID,36,VALID,0.744922,
2010-10-31, 01:04:04,VALID,1008.5,VALID,0,VALID,103.352,VALID,0,VALID,23.8091,VALID,32,VALID,0.408594,
2010-10-31, 01:05:04,VALID,1008.48,VALID,0,VALID,103.306,VALID,0.105969,VALID,23.8091,VALID,3,VALID,0,
2010-10-31, 01:06:04,VALID,1008.44,VALID,0,VALID,103.298,VALID,0,VALID,23.7701,VALID,61,VALID,1.00156,
2010-10-31, 01:07:04,VALID,1008.44,VALID,0,VALID,103.321,VALID,0.105969,VALID,23.8109,VALID,43,VALID,0.184766,
2010-10-31, 01:08:04,VALID,1008.43,VALID,0,VALID,103.283,VALID,0,VALID,23.7932,VALID,43,VALID,0.246094,
2010-10-31, 01:09:04,VALID,1008.42,VALID,0.5,VALID,103.283,VALID,0,VALID,23.772,VALID,47,VALID,0.305469,
2010-10-31, 01:10:04,VALID,1008.45,VALID,0,VALID,103.329,VALID,0,VALID,23.7525,VALID,338,VALID,1.28906,
2010-10-31, 01:11:04,VALID,1008.44,VALID,0,VALID,103.314,VALID,0,VALID,23.7135,VALID,335,VALID,0.43125,
2010-10-31, 01:12:04,VALID,1008.41,VALID,0,VALID,103.298,VALID,0,VALID,23.7135,VALID,4,VALID,0.489844,
2010-10-31, 01:13:04,VALID,1008.38,VALID,0,VALID,103.283,VALID,0,VALID,23.7348,VALID,307,VALID,0.472656,
2010-10-31, 01:14:04,VALID,1008.4,VALID,0,VALID,103.291,VALID,0,VALID,23.7135,VALID,312,VALID,0.754297,
2010-10-31, 01:15:04,VALID,1008.38,VALID,0,VALID,103.314,VALID,0,VALID,23.694,VALID,296,VALID,1.23984,
2010-10-31, 01:16:04,VALID,1008.38,VALID,0,VALID,103.276,VALID,0,VALID,23.7153,VALID,292,VALID,0.475,
2010-10-31, 01:17:04,VALID,1008.38,VALID,0,VALID,103.306,VALID,0,VALID,23.694,VALID,305,VALID,1.51328,
2010-10-31, 01:18:04,VALID,1008.38,VALID,0,VALID,103.314,VALID,0,VALID,23.6958,VALID,348,VALID,1.61406,
2010-10-31, 01:19:04,VALID,1008.33,VALID,0.5,VALID,103.436,VALID,0,VALID,23.6161,VALID,324,VALID,2.22344,
2010-10-31, 01:20:04,VALID,1008.32,VALID,0.5,VALID,103.573,VALID,0,VALID,23.5381,VALID,328,VALID,2.91836,
2010-10-31, 01:21:04,VALID,1008.3,VALID,0.5,VALID,103.55,VALID,0,VALID,23.5204,VALID,309,VALID,1.0207,
2010-10-31, 01:22:04,VALID,1008.26,VALID,0,VALID,103.535,VALID,0,VALID,23.4815,VALID,324,VALID,1.13125,
2010-10-31, 01:23:04,VALID,1008.29,VALID,0.5,VALID,103.55,VALID,0,VALID,23.4407,VALID,303,VALID,2.44883,
2010-10-31, 01:24:04,VALID,1008.27,VALID,0,VALID,103.558,VALID,0,VALID,23.4017,VALID,296,VALID,1.975,
2010-10-31, 01:25:04,VALID,1008.28,VALID,0.5,VALID,103.558,VALID,0,VALID,23.3628,VALID,307,VALID,1.02539,
2010-10-31, 01:26:04,VALID,1008.3,VALID,0,VALID,103.55,VALID,0,VALID,23.3433,VALID,307,VALID,2.18945,
2010-10-31, 01:27:04,VALID,1008.25,VALID,0.5,VALID,103.55,VALID,0,VALID,23.3451,VALID,360,VALID,0.783203,
2010-10-31, 01:28:04,VALID,1008.24,VALID,0,VALID,103.52,VALID,0,VALID,23.3238,VALID,299,VALID,1.77305,
2010-10-31, 01:29:04,VALID,1008.22,VALID,0,VALID,103.558,VALID,0,VALID,23.3043,VALID,302,VALID,1.58711,
2010-10-31, 01:30:04,VALID,1008.13,VALID,0.5,VALID,103.558,VALID,0,VALID,23.2654,VALID,247,VALID,0.938281,
2010-10-31, 01:31:04,VALID,1008.12,VALID,0,VALID,103.573,VALID,0,VALID,23.2654,VALID,326,VALID,1.64414,
2010-10-31, 01:32:04,VALID,1008.09,VALID,0,VALID,103.626,VALID,0,VALID,23.2264,VALID,322,VALID,2.15703,
2010-10-31, 01:33:04,VALID,1008.08,VALID,0,VALID,103.634,VALID,0,VALID,23.2087,VALID,299,VALID,1.66992,
2010-10-31, 01:34:04,VALID,1008.07,VALID,0,VALID,103.642,VALID,0,VALID,23.1679,VALID,316,VALID,0.470313,
2010-10-31, 01:35:04,VALID,1008.06,VALID,0.5,VALID,103.649,VALID,0,VALID,23.1892,VALID,348,VALID,1.56875,
2010-10-31, 01:36:04,VALID,1008.07,VALID,0,VALID,103.649,VALID,0,VALID,23.129,VALID,310,VALID,1.07539,
2010-10-31, 01:37:04,VALID,1008.08,VALID,0,VALID,103.672,VALID,0,VALID,23.1095,VALID,329,VALID,1.00937,
2010-10-31, 01:38:04,VALID,1008.04,VALID,0,VALID,103.664,VALID,0,VALID,23.09,VALID,298,VALID,1.53008,
2010-10-31, 01:39:04,VALID,1008.05,VALID,0,VALID,103.649,VALID,0,VALID,23.0918,VALID,307,VALID,0.264062,
2010-10-31, 01:40:04,VALID,1008.05,VALID,0,VALID,103.642,VALID,0,VALID,23.0705,VALID,249,VALID,0.166797,
2010-10-31, 01:41:04,VALID,1008.1,VALID,0,VALID,103.634,VALID,0,VALID,23.0705,VALID,308,VALID,0.737109,
2010-10-31, 01:42:04,VALID,1008.1,VALID,0.5,VALID,103.642,VALID,0,VALID,23.0511,VALID,261,VALID,0.699219,
2010-10-31, 01:43:04,VALID,1008.06,VALID,0,VALID,103.649,VALID,0,VALID,23.0511,VALID,284,VALID,1.51289,
2010-10-31, 01:44:04,VALID,1008.06,VALID,0,VALID,103.672,VALID,0,VALID,23.0316,VALID,301,VALID,0.291016,
2010-10-31, 01:45:04,VALID,1008.1,VALID,0,VALID,103.664,VALID,0,VALID,23.0316,VALID,282,VALID,1.27344,
2010-10-31, 01:46:04,VALID,1008.09,VALID,0,VALID,103.634,VALID,0,VALID,23.0121,VALID,293,VALID,2.06836,
2010-10-31, 01:47:04,VALID,1008.07,VALID,0,VALID,103.634,VALID,0,VALID,23.0333,VALID,288,VALID,1.45234,
2010-10-31, 01:48:04,VALID,1008.08,VALID,0,VALID,103.642,VALID,0,VALID,23.0121,VALID,307,VALID,1.11758,
2010-10-31, 01:49:04,VALID,1008.06,VALID,0,VALID,103.649,VALID,0,VALID,23.0121,VALID,308,VALID,0.579297,
2010-10-31, 01:50:04,VALID,1008.07,VALID,0,VALID,103.626,VALID,0,VALID,23.0333,VALID,286,VALID,0.233984,
2010-10-31, 01:51:04,VALID,1008.07,VALID,0,VALID,103.611,VALID,0,VALID,23.0121,VALID,297,VALID,0.834766,
2010-10-31, 01:52:04,VALID,1008.02,VALID,0.5,VALID,103.619,VALID,0,VALID,23.0121,VALID,347,VALID,0.866016,
2010-10-31, 01:53:04,VALID,1008.03,VALID,0,VALID,103.603,VALID,0,VALID,23.0121,VALID,299,VALID,0.8,
2010-10-31, 01:54:04,VALID,1008.01,VALID,0,VALID,103.603,VALID,0,VALID,23.0316,VALID,281,VALID,1.14336,
2010-10-31, 01:55:04,VALID,1007.99,VALID,0,VALID,103.596,VALID,0,VALID,23.0121,VALID,266,VALID,0.680859,
2010-10-31, 01:56:04,VALID,1007.99,VALID,0,VALID,103.619,VALID,0,VALID,23.0121,VALID,293,VALID,0.330469,
2010-10-31, 01:57:04,VALID,1007.94,VALID,0,VALID,103.611,VALID,0,VALID,22.9926,VALID,284,VALID,0.745313,
2010-10-31, 01:58:04,VALID,1007.93,VALID,0,VALID,103.603,VALID,0,VALID,22.9926,VALID,313,VALID,1.06289,
2010-10-31, 01:59:04,VALID,1007.93,VALID,0,VALID,103.603,VALID,0,VALID,22.9926,VALID,336,VALID,0.557813,
2010-10-31, 02:00:04,VALID,1007.9,VALID,0,VALID,103.581,VALID,0,VALID,22.9926,VALID,306,VALID,0.919922,
2010-10-31, 02:01:04,VALID,1007.9,VALID,0,VALID,103.565,VALID,0,VALID,23.0333,VALID,309,VALID,0.0601562,
2010-10-31, 02:02:04,VALID,1007.82,VALID,0,VALID,103.558,VALID,0,VALID,23.0333,VALID,295,VALID,0.887109,
2010-10-31, 02:03:04,VALID,1007.84,VALID,0,VALID,103.596,VALID,0,VALID,23.0121,VALID,311,VALID,0.709375,
2010-10-31, 02:04:04,VALID,1007.82,VALID,0,VALID,103.603,VALID,0,VALID,22.9926,VALID,294,VALID,1.09141,
2010-10-31, 02:05:04,VALID,1007.75,VALID,0,VALID,103.611,VALID,0,VALID,22.9926,VALID,330,VALID,2.23672,
2010-10-31, 02:06:04,VALID,1007.77,VALID,0,VALID,103.596,VALID,0,VALID,23.0316,VALID,290,VALID,0.974609,
2010-10-31, 02:07:04,VALID,1007.76,VALID,0,VALID,103.603,VALID,0,VALID,23.0316,VALID,299,VALID,1.35352,
2010-10-31, 02:08:04,VALID,1007.74,VALID,0,VALID,103.603,VALID,0.105969,VALID,23.0688,VALID,324,VALID,0.937891,
2010-10-31, 02:09:04,VALID,1007.71,VALID,0,VALID,103.603,VALID,0.105969,VALID,23.0705,VALID,303,VALID,1.27148,
2010-10-31, 02:10:04,VALID,1007.69,VALID,0,VALID,103.603,VALID,0.105969,VALID,23.0688,VALID,304,VALID,0.775,
2010-10-31, 02:11:04,VALID,1007.68,VALID,0,VALID,103.611,VALID,0.105969,VALID,23.1077,VALID,294,VALID,1.25039,
2010-10-31, 02:12:04,VALID,1007.7,VALID,0,VALID,103.603,VALID,0.105969,VALID,23.1077,VALID,285,VALID,0.216797,
2010-10-31, 02:13:04,VALID,1007.69,VALID,0,VALID,103.573,VALID,0.105969,VALID,23.106,VALID,287,VALID,1.71445,
2010-10-31, 02:14:04,VALID,1007.7,VALID,0,VALID,103.603,VALID,0.105969,VALID,23.1467,VALID,306,VALID,1.18203,
2010-10-31, 02:15:04,VALID,1007.69,VALID,0,VALID,103.603,VALID,0,VALID,23.1679,VALID,293,VALID,1.08711,
2010-10-31, 02:16:04,VALID,1007.66,VALID,0,VALID,103.603,VALID,0.105969,VALID,23.1662,VALID,307,VALID,1.27695,
2010-10-31, 02:17:04,VALID,1007.66,VALID,0,VALID,103.581,VALID,0.105969,VALID,23.1644,VALID,291,VALID,1.39844,
2010-10-31, 02:18:04,VALID,1007.68,VALID,0,VALID,103.588,VALID,0.105969,VALID,23.2246,VALID,305,VALID,0.332031,
2010-10-31, 02:19:04,VALID,1007.68,VALID,0,VALID,103.581,VALID,0.105969,VALID,23.2246,VALID,282,VALID,0.644141,
2010-10-31, 02:20:04,VALID,1007.64,VALID,0,VALID,103.588,VALID,0,VALID,23.2441,VALID,323,VALID,0.567969,
2010-10-31, 02:21:04,VALID,1007.64,VALID,0,VALID,103.565,VALID,0.105969,VALID,23.2636,VALID,322,VALID,0.463672,
2010-10-31, 02:22:04,VALID,1007.63,VALID,0,VALID,103.573,VALID,0,VALID,23.2441,VALID,272,VALID,0.912109,
2010-10-31, 02:23:04,VALID,1007.57,VALID,0,VALID,103.596,VALID,0,VALID,23.2866,VALID,273,VALID,2.24961,
2010-10-31, 02:24:04,VALID,1007.62,VALID,0,VALID,103.603,VALID,0,VALID,23.2848,VALID,301,VALID,1.37656,
2010-10-31, 02:25:04,VALID,1007.59,VALID,0,VALID,103.687,VALID,0,VALID,23.2866,VALID,315,VALID,0.848437,
2010-10-31, 02:26:04,VALID,1007.59,VALID,0,VALID,103.703,VALID,0,VALID,23.3061,VALID,250,VALID,0.851563,
2010-10-31, 02:27:04,VALID,1007.62,VALID,0,VALID,103.703,VALID,0,VALID,23.2866,VALID,290,VALID,0.558984,
2010-10-31, 02:28:04,VALID,1007.61,VALID,0,VALID,103.817,VALID,0,VALID,23.2459,VALID,231,VALID,1.08945,
2010-10-31, 02:29:04,VALID,1007.6,VALID,0,VALID,103.863,VALID,0,VALID,23.2069,VALID,253,VALID,1.86484,
2010-10-31, 02:30:04,VALID,1007.62,VALID,0,VALID,103.886,VALID,0,VALID,23.1874,VALID,282,VALID,0.7375,
2010-10-31, 02:31:04,VALID,1007.61,VALID,0,VALID,103.901,VALID,0,VALID,23.1485,VALID,218,VALID,0.841797,
2010-10-31, 02:32:04,VALID,1007.59,VALID,0,VALID,103.916,VALID,0,VALID,23.0883,VALID,266,VALID,0.581641,
2010-10-31, 02:33:04,VALID,1007.59,VALID,0.5,VALID,103.931,VALID,0,VALID,23.1112,VALID,289,VALID,1.46367,
2010-10-31, 02:34:04,VALID,1007.6,VALID,0,VALID,103.939,VALID,0,VALID,23.0316,VALID,269,VALID,0.820703,
2010-10-31, 02:35:04,VALID,1007.61,VALID,0,VALID,103.954,VALID,0,VALID,23.0316,VALID,232,VALID,0.733203,
2010-10-31, 02:36:04,VALID,1007.58,VALID,0,VALID,103.939,VALID,0,VALID,23.0121,VALID,223,VALID,0.635156,
2010-10-31, 02:37:04,VALID,1007.56,VALID,0,VALID,103.954,VALID,0,VALID,23.0121,VALID,251,VALID,1.43047,
2010-10-31, 02:38:04,VALID,1007.55,VALID,0,VALID,103.931,VALID,0,VALID,22.9926,VALID,276,VALID,0.599609,
2010-10-31, 02:39:04,VALID,1007.53,VALID,0,VALID,103.909,VALID,0,VALID,22.9731,VALID,236,VALID,0.580859,
2010-10-31, 02:40:04,VALID,1007.51,VALID,0,VALID,103.931,VALID,0,VALID,22.9342,VALID,284,VALID,0.785547,
2010-10-31, 02:41:04,VALID,1007.46,VALID,0,VALID,103.916,VALID,0,VALID,22.9536,VALID,224,VALID,0.566016,
2010-10-31, 02:42:04,VALID,1007.46,VALID,0,VALID,103.909,VALID,0,VALID,22.9359,VALID,228,VALID,0.617578,
2010-10-31, 02:43:04,VALID,1007.43,VALID,0,VALID,103.878,VALID,0,VALID,22.9359,VALID,310,VALID,0.499219,
2010-10-31, 02:44:04,VALID,1007.41,VALID,0,VALID,103.893,VALID,0,VALID,22.8952,VALID,222,VALID,0.879687,
2010-10-31, 02:45:04,VALID,1007.39,VALID,0,VALID,103.886,VALID,0,VALID,22.8952,VALID,223,VALID,0.603516,
2010-10-31, 02:46:04,VALID,1007.36,VALID,0,VALID,103.886,VALID,0,VALID,22.8757,VALID,229,VALID,0.759375,
2010-10-31, 02:47:04,VALID,1007.34,VALID,0,VALID,103.886,VALID,0,VALID,22.8757,VALID,271,VALID,0.492578,
2010-10-31, 02:48:04,VALID,1007.32,VALID,0,VALID,103.909,VALID,0,VALID,22.8368,VALID,269,VALID,0.425391,
2010-10-31, 02:49:04,VALID,1007.28,VALID,0,VALID,103.893,VALID,0,VALID,22.8173,VALID,224,VALID,1.13867,
2010-10-31, 02:50:04,VALID,1007.31,VALID,0,VALID,103.87,VALID,0,VALID,22.8173,VALID,256,VALID,0.877734,
2010-10-31, 02:51:04,VALID,1007.3,VALID,0,VALID,103.87,VALID,0,VALID,22.819,VALID,286,VALID,0.366797,
2010-10-31, 02:52:04,VALID,1007.3,VALID,0,VALID,103.863,VALID,0,VALID,22.7783,VALID,232,VALID,0.166797,
2010-10-31, 02:53:04,VALID,1007.3,VALID,0,VALID,103.87,VALID,0,VALID,22.7783,VALID,234,VALID,0.00664063,
2010-10-31, 02:54:04,VALID,1007.3,VALID,0,VALID,103.893,VALID,0,VALID,22.7995,VALID,246,VALID,0.0675781,
2010-10-31, 02:55:04,VALID,1007.29,VALID,0,VALID,103.909,VALID,0,VALID,22.7394,VALID,246,VALID,0.305859,
2010-10-31, 02:56:04,VALID,1007.29,VALID,0,VALID,103.909,VALID,0,VALID,22.7606,VALID,245,VALID,0.0046875,
2010-10-31, 02:57:04,VALID,1007.3,VALID,0,VALID,103.924,VALID,0,VALID,22.7394,VALID,245,VALID,0,
2010-10-31, 02:58:04,VALID,1007.27,VALID,0,VALID,103.931,VALID,0,VALID,22.7411,VALID,245,VALID,0.00273437,
2010-10-31, 02:59:04,VALID,1007.25,VALID,0,VALID,103.947,VALID,0,VALID,22.7004,VALID,231,VALID,0.181641,
2010-10-31, 03:00:04,VALID,1007.26,VALID,0,VALID,103.939,VALID,0,VALID,22.7004,VALID,228,VALID,0.0761719,
2010-10-31, 03:01:04,VALID,1007.21,VALID,0,VALID,103.954,VALID,0,VALID,22.6809,VALID,254,VALID,0.285547,
2010-10-31, 03:02:04,VALID,1007.2,VALID,0,VALID,103.939,VALID,0,VALID,22.7004,VALID,254,VALID,0,
2010-10-31, 03:03:04,VALID,1007.2,VALID,0,VALID,103.931,VALID,0,VALID,22.7216,VALID,254,VALID,0,
2010-10-31, 03:04:04,VALID,1007.21,VALID,0,VALID,103.947,VALID,0,VALID,22.7216,VALID,254,VALID,0,
2010-10-31, 03:05:04,VALID,1007.2,VALID,0,VALID,103.931,VALID,0,VALID,22.7216,VALID,254,VALID,0,
2010-10-31, 03:06:04,VALID,1007.2,VALID,0,VALID,103.954,VALID,0,VALID,22.7216,VALID,254,VALID,0,
2010-10-31, 03:07:04,VALID,1007.17,VALID,0,VALID,103.939,VALID,0,VALID,22.7021,VALID,254,VALID,0,
2010-10-31, 03:08:04,VALID,1007.17,VALID,0,VALID,103.962,VALID,0.105969,VALID,22.7004,VALID,254,VALID,0,
2010-10-31, 03:09:04,VALID,1007.17,VALID,0,VALID,103.947,VALID,0,VALID,22.6792,VALID,254,VALID,0,
2010-10-31, 03:10:04,VALID,1007.14,VALID,0,VALID,103.939,VALID,0.105969,VALID,22.6987,VALID,254,VALID,0,
2010-10-31, 03:11:04,VALID,1007.14,VALID,0,VALID,103.954,VALID,0,VALID,22.7004,VALID,254,VALID,0,
2010-10-31, 03:12:04,VALID,1007.16,VALID,0,VALID,103.954,VALID,0.105969,VALID,22.7004,VALID,254,VALID,0.346484,
2010-10-31, 03:13:04,VALID,1007.17,VALID,0,VALID,104,VALID,0.105969,VALID,22.6402,VALID,254,VALID,0.338672,
2010-10-31, 03:14:04,VALID,1007.15,VALID,0,VALID,104,VALID,0,VALID,22.6208,VALID,254,VALID,0,
2010-10-31, 03:15:04,VALID,1007.19,VALID,0,VALID,103.992,VALID,0.105969,VALID,22.6208,VALID,254,VALID,0,
2010-10-31, 03:16:04,VALID,1007.19,VALID,0,VALID,104,VALID,0.105969,VALID,22.6208,VALID,238,VALID,0,
2010-10-31, 03:17:04,VALID,1007.21,VALID,0,VALID,104,VALID,0.105969,VALID,22.6208,VALID,212,VALID,0,
2010-10-31, 03:18:04,VALID,1007.25,VALID,0,VALID,103.985,VALID,0.105969,VALID,22.6402,VALID,211,VALID,0,
2010-10-31, 03:19:04,VALID,1007.27,VALID,0,VALID,103.977,VALID,0.105969,VALID,22.6792,VALID,211,VALID,0,
2010-10-31, 03:20:04,VALID,1007.25,VALID,0,VALID,103.97,VALID,0,VALID,22.6809,VALID,211,VALID,0,
2010-10-31, 03:21:04,VALID,1007.3,VALID,0,VALID,103.977,VALID,0,VALID,22.6597,VALID,211,VALID,0,
2010-10-31, 03:22:04,VALID,1007.27,VALID,0,VALID,103.954,VALID,0.105969,VALID,22.6597,VALID,211,VALID,0,
2010-10-31, 03:23:04,VALID,1007.28,VALID,0,VALID,103.985,VALID,0,VALID,22.642,VALID,211,VALID,0,
2010-10-31, 03:24:04,VALID,1007.25,VALID,0,VALID,103.992,VALID,0,VALID,22.642,VALID,201,VALID,0,
2010-10-31, 03:25:04,VALID,1007.25,VALID,0,VALID,103.962,VALID,0,VALID,22.6826,VALID,201,VALID,0,
2010-10-31, 03:26:04,VALID,1007.25,VALID,0,VALID,103.985,VALID,0,VALID,22.6809,VALID,201,VALID,0,
2010-10-31, 03:27:04,VALID,1007.17,VALID,0,VALID,103.985,VALID,0,VALID,22.6614,VALID,201,VALID,0,
2010-10-31, 03:28:04,VALID,1007.17,VALID,0,VALID,103.992,VALID,0,VALID,22.6614,VALID,201,VALID,0,
2010-10-31, 03:29:04,VALID,1007.18,VALID,0,VALID,103.992,VALID,0,VALID,22.642,VALID,201,VALID,0,
2010-10-31, 03:30:04,VALID,1007.18,VALID,0,VALID,103.939,VALID,0,VALID,22.6826,VALID,201,VALID,0,
2010-10-31, 03:31:04,VALID,1007.14,VALID,0,VALID,103.947,VALID,0,VALID,22.6614,VALID,201,VALID,0,
2010-10-31, 03:32:04,VALID,1007.14,VALID,0,VALID,103.954,VALID,0,VALID,22.6614,VALID,201,VALID,0,
2010-10-31, 03:33:04,VALID,1007.14,VALID,0,VALID,103.947,VALID,0,VALID,22.6826,VALID,201,VALID,0,
2010-10-31, 03:34:04,VALID,1007.14,VALID,0,VALID,103.947,VALID,0,VALID,22.642,VALID,201,VALID,0,
2010-10-31, 03:35:04,VALID,1007.12,VALID,0,VALID,103.931,VALID,0,VALID,22.6614,VALID,201,VALID,0,
2010-10-31, 03:36:04,VALID,1007.13,VALID,0,VALID,103.916,VALID,0,VALID,22.6614,VALID,201,VALID,0,
2010-10-31, 03:37:04,VALID,1007.1,VALID,0,VALID,103.916,VALID,0,VALID,22.642,VALID,201,VALID,0,
2010-10-31, 03:38:04,VALID,1007.1,VALID,0,VALID,103.931,VALID,0,VALID,22.642,VALID,201,VALID,0,
2010-10-31, 03:39:04,VALID,1007.13,VALID,0,VALID,103.916,VALID,0,VALID,22.6614,VALID,201,VALID,0,
2010-10-31, 03:40:04,VALID,1007.12,VALID,0,VALID,103.893,VALID,0,VALID,22.6809,VALID,201,VALID,0,
2010-10-31, 03:41:04,VALID,1007.13,VALID,0,VALID,103.901,VALID,0,VALID,22.6809,VALID,201,VALID,0,
2010-10-31, 03:42:04,VALID,1007.11,VALID,0,VALID,103.901,VALID,0,VALID,22.7004,VALID,201,VALID,0,
2010-10-31, 03:43:04,VALID,1007.12,VALID,0,VALID,103.878,VALID,0,VALID,22.7199,VALID,201,VALID,0,
2010-10-31, 03:44:04,VALID,1007.15,VALID,0,VALID,103.878,VALID,0,VALID,22.7199,VALID,201,VALID,0,
2010-10-31, 03:45:04,VALID,1007.15,VALID,0,VALID,103.878,VALID,0,VALID,22.6987,VALID,201,VALID,0,